Regional Weather Roundup
Issued by NWS

Home | Current Version | Previous Version | Text Only | Print | Product List | Glossary On
Versions: 1 2 3 4 5 6 7 8 9 10 11 12 13 14 15 16 17 18 19 20 21 22 23 24 25 26 27 28 29 30 31 32 33 34 35 36 37 38 39 40 41 42 43 44 45 46 47 48 49 50
000
ASUS46 KLOX 251112
RWRCA

SOUTHERN CALIFORNIA WEATHER ROUNDUP
NATIONAL WEATHER SERVICE OXNARD CALIFORNIA
400 AM PDT SAT APR 25 2015

NOTE: "FAIR" INDICATES FEW OR NO CLOUDS BELOW 12,000 FEET WITH NO
SIGNIFICANT WEATHER AND/OR OBSTRUCTIONS TO VISIBILITY.

  -  STATIONS PRECEEDED BY AN ASTERISK (*) ARE NOT NWS OR FAA
     STATIONS AND ARE NOT SUBJECT TO NWS AND FAA QUALITY CONTROL.

CAZ041-042-087-251200-
LA AND ORANGE COUNTY COASTAL AREAS


CITY           SKY/WX    TMP DP  RH WIND       PRES   REMARKS
L.A. DOWNTOWN  MOCLDY    57  51  80 CALM      29.97F
L.A. AIRPORT   PTCLDY    57  51  80 W3        29.99S
LONG BEACH     PTCLDY    59  51  75 W7        29.98S

CITY           SKY/WX    TMP DP  RH WIND       PRES   REMARKS
AVALON           N/A     52 N/A N/A MISG        N/A
FULLERTON      CLOUDY    60  49  66 NW3       29.97S
*GETTY CENTER    N/A    N/A N/A N/A W3          N/A
HAWTHORNE      MOCLDY    58  50  75 CALM      29.99S
*LEO CARRILLO    N/A     53  47  79 N7          N/A
*LOS ALAMITOS  CLOUDY    59  52  77 W5        29.97F
*REDONDO BEACH   N/A     55  50  84 CALM      29.98S
SANTA ANA      CLOUDY    60  50  69 CALM      29.98S
STA MONICA APT MOCLDY    57  49  74 CALM      29.99S
*STA MON PIER    N/A     56  51  82 CALM      29.98S
*UCLA            N/A     54  46  76 CALM      29.96R

$$

CAZ547-548-048-251200-
LA COUNTY VALLEYS AND INLAND EMPIRE


CITY           SKY/WX    TMP DP  RH WIND       PRES   REMARKS
BURBANK        CLOUDY    57  49  74 CALM      29.97S
VAN NUYS       CLOUDY    55  48  77 CALM      29.97S

CITY           SKY/WX    TMP DP  RH WIND       PRES   REMARKS
CORONA AIRPORT CLOUDY    56  51  83 CALM      29.98S
*CHATSWORTH      N/A     53  47  82 CALM      29.99R
CHINO          CLOUDY    57  50  77 W7        29.99S
MARCH AFB      MOCLDY    54  49  82 CALM      29.97S
*NORTHRIDGE      N/A     54  48  82 CALM        N/A
ONTARIO        CLOUDY    56  50  80 SW5       29.97S
*PASADENA        N/A     57  52  82 CALM        N/A
RIVERSIDE      CLOUDY    56  50  80 W8        29.97F
SAN BERNARDINO NOT AVBL
*SAN RAFAEL HI   N/A     52  49  91 CALM        N/A
*SAUGUS          N/A     50  48  94 CALM        N/A
*WHITEMAN AP   NOT AVBL
*WOODLAND HILL   N/A     50  46  87 S1          N/A

$$

CAZ054-055-251200-
LA AND SAN BERNARDINO COUNTY MOUNTAINS


CITY           SKY/WX    TMP DP  RH WIND       PRES   REMARKS
*BIG BEAR AIRP SUNNY     34  30  86 SW6       29.97S WCI  29
MT WILSON NWS    N/A     37  36  93 MISG        N/A
SANDBERG       CLEAR     43  30  60 NW20      29.99S WCI  34

$$

CAZ028-029-059-060-099-251200-
ANTELOPE VALLEY AND SURROUNDING AREAS


CITY           SKY/WX    TMP DP  RH WIND       PRES   REMARKS
LANCASTER      PTCLDY    51  32  48 W29       29.93S
PALMDALE       MOCLDY    51  38  60 W15       29.96R
*POPPY PARK      N/A     47  33  57 W5G18       N/A

CITY           SKY/WX    TMP DP  RH WIND       PRES   REMARKS
29 PALMS       PTCLDY    55  40  56 VRB3      29.91S
BARSTOW/DAGGET PTCLDY    59  34  39 SW29G40   29.83S
BISHOP         MOCLDY    44  22  41 NE7       29.76F
CHINA LAKE     MOCLDY    60  28  29 W17       29.77R
EDWARDS AFB    MOCLDY    54  32  42 SW20      29.89S
MOJAVE         FAIR      50  32  50 W17G23    29.92F
NEEDLES        CLEAR     64  36  35 SW8       29.79F
VICTORVILLE    PTCLDY    52  34  50 W17G30    29.91F

$$

CAZ039-040-251200-
VENTURA AND SANTA BARBARA COUNTY COAST


CITY           SKY/WX    TMP DP  RH WIND       PRES   REMARKS
CAMARILLO      PTCLDY    51  46  83 E3        29.98R
OXNARD AIRPORT PTCLDY    53  48  83 E3        29.98S
*POINT MUGU    MOCLDY    57  50  77 W3        29.99S
SBA APT/GOLETA PTCLDY    52  45  77 CALM      29.98F
*SANTA BARBARA   N/A     53  45  73 CALM      30.06S
*VENTURA         N/A     52  46  79 CALM      30.02S

$$

CAZ044-045-251200-
VENTURA COUNTY VALLEYS


CITY           SKY/WX    TMP DP  RH WIND       PRES   REMARKS
*SIMI VALLEY     N/A     48  46  93 CALM      29.96S
*OJAI            N/A     42  40  91 CALM      29.95F
*FILLMORE        N/A     51  47  86 CALM      29.88F

$$

CAZ053-251200-
VENTURA COUNTY MOUNTAINS


CITY           SKY/WX    TMP DP  RH WIND       PRES   REMARKS
*LOCKWOOD VLY    N/A     30  27  86 MISG        N/A
*ROSE VALLEY     N/A     41 -99   0 MISG        N/A

$$

CAZ034-035-036-251200-
CENTRAL COAST AND SANTA YNEZ VALLEY


CITY           SKY/WX    TMP DP  RH WIND       PRES   REMARKS
SAN LUIS OBISP CLOUDY    50  44  80 SE5       30.02F
SANTA MARIA    MOCLDY    52  48  86 E3        30.03F

CITY           SKY/WX    TMP DP  RH WIND       PRES   REMARKS
*CAL POLY SLO    N/A     48  46  93 NE3         N/A
*LOMPOC        CLOUDY    55  46  71 NW6       30.04S
*PISMO BEACH     N/A     50  47  87 NE2       30.03F
*SANTA YNEZ    FAIR      50  45  81 CALM      30.03S

$$

CAZ037-038-051-251200-
SAN LUIS OBISPO COUNTY INTERIOR AND CUYAMA VALLEY


CITY           SKY/WX    TMP DP  RH WIND       PRES   REMARKS
*CUYAMA          N/A     45  38  77 CALM      29.97S
PASO ROBLES    CLOUDY    50  41  71 S6        29.99F

$$

CAZ032-033-061-251200-
SOUTHERN DESERTS


CITY           SKY/WX    TMP DP  RH WIND       PRES   REMARKS
BLYTHE         CLEAR     63  48  58 W7        29.83R
IMPERIAL       CLEAR     62  46  55 W15       29.86R
PALM SPRINGS   CLEAR     64  44  48 VRB6      29.84S
THERMAL        CLEAR     65  46  50 NW12      29.82S

$$

ELSEWHERE ACROSS THE WESTERN UNITED STATES AND MEXICO


CITY           SKY/WX    TMP DP  RH WIND       PRES   REMARKS
DENVER, CO     CLEAR     42  27  55 S6        29.72R
GRAND CANYON,  CLOUDY    42  36  79 S8        29.95F
HONOLULU, HI   MOCLDY    73  70  88 S12       29.97F
KAHULUI, MAUI  CLEAR     68  63  83 S6        29.97F
LAKE TAHOE, CA LGT SNOW  35  31  85 S12       29.77F VSB 3/4 WCI  27
LAS VEGAS, NV  MOCLDY    60  36  40 S10       29.73S
MAMMOTH LAKES, CLOUDY    41  23  48 SW13G37   29.82F WCI  34
MEXICO CITY, M PTCLDY    63  50  63 CALM      30.28S
PHOENIX, AZ    PTCLDY    64  41  42 E6        29.87S
PORTLAND, OR   LGT RAIN  48  46  93 CALM      29.93R
RENO, NV       LGT RAIN  43  38  82 SW6       29.78F
SALT LAKE CITY MOCLDY    44  39  82 CALM      29.83S
SAN DIEGO, CA  CLOUDY    62  50  64 S3        30.00F
SAN FRANCISCO, LGT RAIN  57  54  89 W22       29.90S
SAN JOSE, CA   LGT RAIN  55  54  96 E6        29.91F FOG
SEATTLE, WA    HVY RAIN  44  40  85 N10       29.91R FOG
TIJUANA, MEX   MOCLDY    57  48  72 CALM      30.01F

$$

STATION/POSITION TIME  TEMP    WIND        PRES    VSBY  WAVE
                       AIR SEA DIR/SP/G                  HT/PER
                 (UTC) (F)     (DEG/KT/KT) (MB)    (MI)  (FT/S)
POINT ARGUELLO B NOT AVBL
WEST SANTA BARBA 1100   55 55  340/ 16/ 19 1015.9F         5/ 7
POINT CONCEPTION NOT AVBL
EAST SANTA BARBA NOT AVBL
SANTA MONICA BAY 1100   58 61  320/  8/ 10 1015.5R         4/ 6



USA.gov is the U.S. government's official web portal to all federal, state and local government web resources and services.